Probability
0 0 0 0 0 0 0 0 0 0 0 0 0 0 0 0 0 0 0 0 0 0 0 0 0 0 0 0 0 0 0 0 0 0 0 0 0 0 0 0 0 0 0
0 0 0 0 0 0 0 0 0 0 0 0 0 0 0 0 0 0 0 0 0 0 0 0 0 0 0 0 0 0 0 0 0 0 0 0 0 0 0 0 0 0 0
0 0 0 0 0 0 0 0 0 0 0 0 0 0 0 0 0 0 0 0 0 0 0 0 0 0 0 0 0 0 0 0 0 0 0 0 0 0 0 0 0 0 0
0 0 0 0 0 0 0 0 0 0 0 0 0 0 0 0 0 0 0 0 0 0 0 0 0 0 0 0 0 0 0 0 0 0 0 0 0 0 0 0 0 0 0
0 0 0 0 0 0 0 0 0 0 0 0 0 0 0 0 0 0 0 0 0 0 0 0 0 0 0 0 0 0 0 0 0 0 0 0 0 0 0 0 0 0 0
0 0 0 0 0 0 0 0 0 0 0 0 0 0 0 0 0 0 0 0 0 0 0 0 0 0 0 0 0 0 0 0 0 0 0 0 0 0 0 0 0 0 0
0 0 0 0 0 0 0 0 0 0 0 0 0 0 0 0 0 0 0 0 0 0 0 0 0 0 0 0 0 0 0 0 0 0 0 0 0 0 0 0 0 0 0
0 0 0 0 0 0 0 0 0 0 0 0 0 0 0 0 0 0 0 0 0 0 0 0 0 0 0 0 0 0 0 0 0 0 0 0 0 0 0 0 0 0 0
0 0 0 0 0 0 0 0 0 0 0 0 0 0 0 0 0 0 0 0 0 0 0 0 0 0 0 0 0 0 0 0 0 0 0 0 0 0 0 0 0 0 0
0 0 0 0 0 0 0 0 0 0 0 0 0 0 0 0 0 0 0 0 0 0 0 0 0 0 0 0 0 0 0 0 0 0 0 0 0 0 0 0 0 0 0
0 0 0 0 0 0 0 0 0 0 0 0 0 0 0 0 0 0 0 0 0 0 0 0 0 0 0 0 0 0 0 0 0 0 0 0 0 0 0 0 0 0 0
0 0 0 0 0 0 0 0 0 0 0 0 0 0 0 0 0 0 0 0 0 0 0 0 0 0 0 0 0 0 0 0 0 0 0 0 0 0 0 0 0 0 0
0 0 0 0 0 0 0 0 0 0 0 0 0 0 0 0 0 0 0 0 0 0 0 0 0 0 0 0 0 0 0 0 0 0 0 0 0 0 0 0 0 0 0
0 0 0 0 0 0 0 0 0 0 0 0 0 0 0 0 0 0 0 0 0 0 0 0 0 0 0 0 0 0 0 0 0 0 0 0 0 0 0 0 0 0 0
0 0 0 0 0 0 0 0 0 0 0 0 0 0 0 0 0 0 0 0 0 0 0 0 0 0 0 0 0 0 0 0 0 0 0 0 0 0 0 0 0 0 0
0 0 0 0 0 0 0 0 0 0 0 0 0 0 0 0 0 0 0 0 0 0 0 0 0 0 0 0 0 0 0 0 0 0 0 0 0 0 0 0 0 0 0
0 0 0 0 0 0 0 0 0 0 0 0 0 0 0 0 0 0 0 0 0 0 0 0 0 0 0 0 0 0 0 0 0 0 0 0 0 0 0 0 0 0 0
0 0 0 0 0 0 0 0 0 0 0 0 0 0 0 0 0 0 0 0 0 0 0 0 0 0 0 0 0 0 0 0 0 0 0 0 0 0 0 0 0 0 0
0 0 0 0 0 0 0 0 0 0 0 0 0 0 0 0 0 0 0 0 0 0 0 0 0 0 0 0 0 0 0 0 0 0 0 0 0 0 0 0 0 0 0
0 0 0 0 0 0 0 0 0 0 0 0 0 0 0 0 0 0 0 0 0 0 0 0 0 0 0 0 0 0 0 0 0 0 0 0 0 0 0 0 0 0 0
0 0 0 0 0 0 0 0 0 0 0 0 0 0 0 0 0 0 0 0 0 0 0 0 0 0 0 0 0 0 0 0 0 0 0 0 0 0 0 0 0 0 0
0 0 0 0 0 0 0 0 0 0 0 0 0 0 0 0 0 0 0 0 0 0 0 0 0 0 0 0 0 0 0 0 0 0 0 0 0 0 0 0 0 0 0
0 0 0 0 0 0 0 0 0 0 0 0 0 0 0 0 0 0 0 0 0 0 0 0 0 0 0 0 0 0 0 0 0 0 0 0 0 0 0 0 0 0 0
0 0 0 0 0 0 0 0 0 0 0 0 0 0 0 0 0 0 0 0 0 0 0 0 0 0 0 0 0 0 0 0 0 0 0 0 0 0 0 0 0 0 0
0 0 0 0 0 0 0 0 0 0 0 0 0 0 0 0 0 0 0 0 0 0 0 0 0 0 0 0 0 0 0 0 0 0 0 0 0 0 0 0 0 0 0
0 0 0 0 0 0 0 0 0 0 0 0 0 0 0 0 0 0 0 0 0 0 0 0 0 0 0 0 0 0 0 0 0 0 0 0 0 0 0 0 0 0 0
Height
5799 5798 5797 5796 5796 5795 5794 5793 5792 5791 5790 5789 5788 5786 5785 5784 5783 5782 5781 5781 5780 5778 5777 5777 5776 5775 5774 5772 5771 5770 5768 5767 5766 5765 5764 5764 5763 5763 5763 5764 5764 5765 5765
5792 5791 5790 5789 5788 5788 5787 5785 5784 5783 5782 5781 5780 5779 5778 5776 5775 5774 5773 5772 5771 5770 5769 5768 5768 5767 5766 5765 5763 5762 5761 5759 5758 5758 5757 5756 5756 5755 5756 5756 5756 5757 5757
5785 5784 5783 5782 5781 5780 5779 5778 5777 5775 5774 5773 5772 5771 5769 5768 5766 5765 5764 5763 5762 5761 5760 5760 5759 5758 5758 5756 5755 5754 5752 5751 5750 5749 5749 5748 5748 5748 5748 5748 5748 5749 5749
5777 5776 5775 5774 5773 5772 5771 5770 5769 5768 5766 5765 5763 5762 5760 5759 5757 5756 5755 5753 5753 5752 5751 5750 5749 5749 5748 5747 5746 5745 5744 5743 5742 5741 5741 5740 5740 5740 5740 5740 5741 5741 5741
5770 5769 5768 5766 5765 5764 5762 5761 5760 5759 5758 5756 5755 5753 5751 5749 5748 5746 5745 5744 5742 5742 5741 5740 5739 5739 5738 5737 5736 5735 5734 5734 5733 5733 5732 5732 5732 5732 5732 5732 5732 5733 5733
5762 5761 5759 5758 5757 5755 5754 5753 5751 5750 5749 5747 5746 5744 5742 5740 5738 5736 5735 5733 5732 5731 5731 5730 5729 5728 5727 5726 5726 5725 5725 5724 5724 5724 5723 5723 5723 5723 5723 5723 5724 5724 5725
5754 5752 5751 5749 5748 5746 5745 5743 5742 5741 5739 5738 5736 5734 5732 5730 5728 5726 5724 5723 5721 5720 5720 5719 5718 5717 5716 5716 5715 5715 5714 5714 5714 5714 5714 5714 5714 5714 5714 5714 5714 5715 5716
5746 5744 5742 5740 5739 5737 5735 5734 5733 5731 5730 5728 5726 5724 5722 5720 5718 5716 5714 5712 5711 5710 5709 5708 5707 5706 5706 5705 5705 5704 5704 5704 5704 5703 5703 5703 5703 5703 5703 5704 5704 5705 5706
5737 5735 5733 5731 5729 5727 5726 5724 5723 5721 5719 5717 5715 5713 5711 5709 5707 5705 5703 5702 5700 5699 5698 5697 5696 5695 5695 5694 5694 5693 5693 5693 5692 5692 5692 5692 5692 5692 5692 5693 5694 5695 5696
5728 5726 5724 5722 5719 5718 5716 5714 5712 5710 5708 5706 5704 5702 5700 5698 5696 5694 5692 5691 5690 5689 5687 5686 5685 5684 5683 5682 5682 5682 5682 5681 5681 5681 5681 5681 5681 5681 5681 5682 5683 5684 5685
5719 5717 5714 5712 5710 5708 5705 5703 5701 5699 5697 5695 5693 5691 5689 5687 5685 5683 5681 5680 5678 5677 5676 5675 5674 5673 5672 5671 5670 5670 5670 5669 5669 5669 5669 5669 5669 5670 5670 5671 5672 5673 5674
5709 5707 5704 5702 5699 5697 5695 5692 5690 5688 5685 5683 5681 5679 5677 5675 5674 5672 5670 5668 5667 5666 5664 5663 5662 5661 5660 5659 5659 5658 5657 5657 5657 5657 5657 5657 5657 5658 5658 5659 5660 5661 5663
5699 5696 5694 5691 5689 5686 5683 5681 5678 5676 5674 5671 5669 5667 5666 5664 5662 5660 5658 5657 5655 5654 5652 5651 5650 5649 5648 5647 5647 5646 5645 5645 5644 5645 5645 5645 5645 5646 5646 5647 5648 5649 5651
5688 5686 5683 5681 5678 5675 5672 5669 5667 5664 5662 5659 5657 5655 5654 5652 5651 5649 5647 5645 5644 5642 5641 5639 5638 5637 5635 5635 5634 5633 5633 5632 5632 5632 5632 5632 5633 5633 5634 5635 5636 5637 5639
5678 5675 5672 5670 5667 5664 5661 5658 5656 5653 5650 5648 5646 5644 5642 5641 5639 5637 5635 5634 5632 5631 5629 5628 5627 5625 5624 5623 5622 5621 5621 5620 5620 5620 5620 5620 5621 5621 5622 5623 5624 5625 5627
5667 5665 5662 5659 5656 5653 5650 5647 5644 5642 5639 5636 5634 5632 5631 5629 5627 5625 5624 5622 5621 5620 5618 5617 5615 5614 5613 5612 5611 5610 5609 5609 5609 5609 5608 5609 5609 5610 5610 5611 5612 5614 5615
5656 5654 5651 5648 5645 5642 5639 5636 5634 5631 5628 5626 5623 5621 5619 5617 5616 5614 5613 5611 5610 5608 5607 5606 5604 5603 5602 5601 5600 5600 5599 5599 5598 5598 5598 5597 5597 5598 5599 5600 5601 5602 5603
5645 5643 5640 5637 5634 5631 5628 5625 5622 5620 5618 5615 5612 5610 5608 5606 5605 5603 5602 5600 5599 5597 5596 5595 5593 5592 5591 5590 5589 5589 5588 5588 5587 5587 5586 5586 5586 5586 5587 5588 5589 5590 5591
5634 5632 5629 5626 5623 5620 5617 5614 5611 5608 5606 5604 5601 5599 5597 5595 5594 5592 5590 5589 5588 5587 5585 5584 5582 5581 5580 5578 5578 5577 5577 5576 5576 5575 5575 5575 5575 5575 5575 5576 5576 5577 5579
5623 5620 5618 5615 5612 5609 5606 5603 5600 5597 5595 5593 5591 5588 5586 5585 5584 5582 5580 5578 5577 5575 5574 5573 5571 5570 5568 5567 5566 5566 5565 5565 5564 5564 5564 5563 5563 5563 5563 5564 5565 5566 5567
5613 5610 5607 5604 5601 5598 5595 5593 5590 5587 5585 5582 5580 5577 5575 5573 5572 5570 5568 5567 5565 5564 5562 5561 5560 5558 5557 5555 5555 5555 5554 5554 5553 5553 5553 5552 5552 5552 5552 5553 5553 5554 5555
5602 5600 5597 5594 5591 5588 5585 5582 5579 5577 5574 5571 5568 5566 5563 5561 5560 5558 5556 5555 5554 5552 5551 5549 5548 5547 5545 5544 5544 5544 5543 5543 5542 5542 5542 5542 5541 5541 5541 5542 5542 5543 5544
5592 5589 5586 5583 5580 5578 5575 5572 5569 5566 5563 5560 5557 5554 5552 5550 5548 5546 5544 5543 5542 5540 5539 5538 5537 5535 5534 5533 5533 5533 5533 5533 5532 5532 5532 5532 5531 5531 5531 5531 5532 5532 5533
5582 5579 5576 5573 5570 5567 5564 5561 5558 5555 5552 5549 5546 5543 5540 5538 5536 5535 5533 5531 5530 5529 5527 5526 5525 5524 5523 5523 5522 5522 5522 5522 5522 5522 5522 5521 5521 5521 5521 5521 5522 5522 5523
5572 5569 5565 5562 5559 5556 5553 5550 5547 5544 5541 5538 5535 5532 5530 5527 5525 5523 5522 5520 5519 5517 5516 5515 5514 5513 5512 5512 5512 5512 5512 5512 5512 5511 5511 5512 5512 5512 5511 5512 5512 5512 5513
5561 5558 5555 5552 5549 5546 5543 5540 5537 5534 5531 5528 5525 5522 5519 5517 5514 5512 5511 5509 5507 5506 5505 5504 5503 5502 5502 5501 5501 5501 5501 5501 5501 5501 5501 5501 5502 5502 5501 5502 5502 5502 5503
Wind_Speed
24 24 24 24 24 25 25 25 26 26 25 26 26 26 26 26 27 27 27 27 27 27 27 26 25 26 25 25 26 26 26 26 26 25 25 25 25 25 25 25 25 24 24
25 25 25 25 25 25 26 27 27 27 27 27 27 28 28 28 28 28 29 29 29 29 29 28 28 27 27 27 27 28 28 28 27 27 27 26 26 26 25 25 25 25 25
26 26 26 26 26 27 28 28 28 27 28 28 28 29 30 30 30 30 30 30 30 30 30 30 30 29 29 29 29 29 29 28 28 28 27 27 27 26 26 26 26 26 26
27 28 27 28 28 28 29 30 29 28 28 28 29 30 31 31 31 31 31 31 31 31 31 32 32 32 31 31 31 30 29 29 28 28 27 27 27 27 27 27 27 27 27
28 28 29 29 29 29 29 30 30 29 29 29 30 31 32 32 32 32 32 32 33 32 33 33 33 33 32 32 31 30 29 29 29 29 28 28 27 27 28 28 28 28 28
28 29 29 30 30 30 30 31 31 30 30 31 31 32 32 32 32 33 33 34 34 34 34 34 35 35 34 33 31 31 30 30 30 30 30 29 29 29 29 30 30 29 29
29 29 30 31 31 31 31 31 31 31 32 32 33 33 33 33 33 34 34 35 34 34 34 35 35 35 34 33 33 32 31 31 32 31 31 31 31 31 31 31 31 30 30
30 30 31 32 32 33 33 33 33 33 34 34 34 34 33 34 34 35 35 34 34 34 34 34 35 35 34 34 34 33 33 33 33 33 32 32 33 33 33 32 32 31 31
31 32 32 33 33 33 34 34 34 34 35 35 36 36 35 35 36 36 35 35 34 34 34 34 34 35 35 34 34 34 34 34 33 33 33 34 34 34 34 34 33 33 32
33 33 34 34 34 34 35 35 36 36 36 36 37 37 37 37 36 36 36 35 35 34 34 34 34 35 35 35 34 34 34 35 35 35 34 34 35 35 35 35 34 34 33
34 34 35 34 34 35 35 36 37 37 37 37 37 37 37 36 36 36 36 35 35 35 35 35 34 35 35 34 35 35 35 35 35 35 35 35 35 36 36 36 36 35 34
34 35 35 35 35 36 37 37 37 37 38 38 38 37 37 37 37 37 36 36 35 35 35 35 35 35 35 35 35 35 35 35 35 36 36 36 36 36 36 36 36 36 36
35 36 36 36 36 37 38 38 37 37 37 38 38 37 36 36 37 36 36 36 35 35 35 35 35 35 35 35 35 35 35 36 36 37 37 37 37 36 36 36 36 37 37
35 36 36 36 36 37 38 38 38 38 38 37 37 37 36 36 35 35 35 35 35 35 35 35 35 35 35 35 35 36 35 35 35 36 36 37 37 37 36 36 36 37 37
35 35 35 36 36 37 37 37 37 37 37 36 36 36 35 35 36 36 35 35 35 35 36 36 35 35 34 34 34 35 35 35 35 35 35 35 36 35 35 35 36 36 37
36 36 36 36 37 37 37 37 37 37 37 36 36 36 36 36 35 34 35 35 35 35 35 34 34 34 34 34 34 33 33 33 34 34 34 34 34 34 34 35 36 36 37
36 36 37 37 37 37 37 37 37 37 37 36 36 35 35 34 34 33 34 34 34 34 34 34 34 34 34 34 34 33 33 33 33 33 33 34 34 35 35 36 37 37 37
36 36 36 36 36 37 37 37 37 37 37 37 36 35 35 35 35 34 33 34 34 35 34 34 34 34 34 34 34 34 33 33 34 34 34 34 34 35 35 36 37 36 37
36 36 36 35 35 36 36 37 37 37 37 36 36 35 34 34 34 34 34 34 34 34 34 34 34 34 34 34 34 34 34 34 34 34 34 34 34 35 35 36 36 36 36
35 35 35 35 35 36 36 35 35 35 35 34 34 34 34 34 34 35 35 35 35 35 35 35 35 35 35 34 34 33 33 33 33 33 32 33 33 34 34 34 35 35 36
34 35 34 34 34 34 34 34 34 34 34 34 34 35 36 36 35 36 36 36 36 36 36 36 35 35 35 34 33 32 32 33 33 32 32 32 32 32 32 33 33 34 35
34 34 34 34 34 33 33 33 34 34 35 35 35 35 36 36 36 36 37 37 37 37 36 36 35 35 35 34 33 33 32 32 32 31 31 31 31 31 31 31 32 33 33
34 34 35 35 35 35 35 35 35 35 35 35 35 35 35 35 35 36 36 36 36 36 35 34 34 34 33 33 32 31 31 30 30 30 31 30 30 30 29 29 30 30 31
34 34 34 35 35 35 35 35 35 35 35 35 35 35 35 34 35 35 35 34 34 33 33 32 32 32 32 31 31 30 29 29 29 30 30 30 29 29 29 28 28 28 29
34 34 34 35 35 34 34 35 35 36 35 35 35 35 34 34 34 34 34 33 32 32 31 31 31 31 30 30 29 30 30 30 30 30 29 28 28 28 29 28 28 28 28
34 34 34 33 33 33 33 34 34 35 35 35 35 34 33 33 33 32 32 32 31 30 30 30 30 30 30 30 29 29 29 29 29 29 28 28 28 28 28 28 28 28 28
Wind_Direction
281 282 282 283 283 283 284 284 284 282 283 284 284 284 284 283 283 281 280 280 281 280 280 279 279 280 282 282 283 283 282 281 280 279 277 276 274 273 271 270 269 268 267
282 282 282 282 282 282 283 284 284 283 283 283 283 283 283 284 283 283 282 281 281 280 280 279 278 279 280 280 282 282 281 280 280 278 276 275 272 271 269 268 268 267 266
283 283 283 282 282 283 284 285 284 283 282 283 283 283 284 283 283 283 283 282 281 280 280 279 278 279 280 280 281 281 280 279 277 276 274 273 272 270 269 268 268 268 267
285 284 283 282 283 283 283 283 283 283 282 282 284 284 284 284 283 282 282 282 280 279 279 278 278 278 279 280 280 279 278 277 276 274 273 272 271 269 268 268 268 269 269
285 285 283 282 283 283 283 284 283 283 284 283 284 285 285 284 283 282 282 281 280 278 278 278 278 279 280 280 280 278 276 275 274 274 273 272 271 269 268 267 268 269 271
285 285 284 283 284 283 282 283 282 282 284 284 285 285 285 285 284 283 282 282 280 279 278 277 279 279 278 278 278 276 275 274 273 272 272 272 271 270 269 269 269 268 269
284 284 284 285 284 283 284 284 284 284 284 285 285 285 286 286 285 285 284 283 282 280 279 278 278 277 276 276 275 274 274 274 273 272 271 270 271 270 269 269 269 267 267
286 285 284 285 285 284 284 283 283 284 286 286 285 285 285 285 285 286 286 285 284 282 280 279 278 278 278 276 275 273 273 273 273 272 270 270 270 270 270 268 267 266 266
286 286 286 285 284 284 284 283 284 285 285 286 285 285 285 285 285 286 285 284 283 282 281 281 280 279 278 275 273 273 273 273 273 272 270 270 269 269 268 268 266 265 265
285 286 287 287 286 286 286 284 284 285 285 284 285 285 285 285 286 286 285 284 283 283 282 281 281 280 278 276 274 273 272 272 273 272 271 270 269 269 268 267 266 265 263
285 285 287 287 287 286 286 285 284 284 285 285 284 284 285 284 285 286 286 285 284 283 283 282 281 280 278 277 275 273 273 272 272 271 270 269 269 268 267 265 264 263 263
286 286 287 287 288 287 286 286 285 285 285 285 284 284 284 284 284 284 285 285 285 283 282 281 280 280 279 278 276 275 273 272 272 271 271 270 269 267 266 265 263 261 261
288 288 288 288 288 289 288 286 285 285 286 285 284 283 283 285 284 284 283 284 284 283 283 282 281 280 279 278 276 275 275 274 272 271 270 270 269 267 266 264 263 261 259
289 288 288 288 288 289 288 287 286 286 286 284 283 283 283 283 284 284 284 284 284 284 283 282 282 282 280 279 277 275 275 275 273 271 269 269 268 266 265 264 263 261 259
289 289 288 288 289 290 289 288 288 288 286 286 285 285 284 284 284 284 284 283 283 284 284 283 283 282 281 281 279 277 275 274 274 272 270 269 268 267 265 264 264 263 260
288 289 289 289 288 289 289 289 288 288 287 286 286 286 285 284 284 283 282 282 282 283 283 284 283 282 282 282 280 279 277 275 273 272 271 271 269 268 267 266 264 263 262
288 289 289 289 289 289 289 289 289 288 288 288 287 286 285 283 282 282 281 281 282 283 283 283 283 282 281 280 279 278 277 275 273 273 271 271 271 270 268 266 265 265 265
289 289 289 289 289 290 290 288 288 288 288 288 287 286 285 284 283 281 281 281 282 283 283 282 282 282 281 280 278 277 276 276 274 273 272 272 271 269 268 267 266 265 265
290 290 289 289 289 290 290 289 289 288 288 287 286 285 284 283 283 283 282 282 282 283 282 282 283 283 282 281 279 277 276 276 275 274 273 272 270 269 268 267 266 264 264
291 290 290 289 289 289 290 290 290 290 289 286 285 284 283 283 283 283 283 283 283 283 283 282 283 282 281 280 278 276 275 275 274 274 273 272 271 270 268 267 265 264 263
292 292 291 291 291 292 291 291 291 291 290 287 286 286 284 283 283 283 282 281 281 282 283 283 284 283 281 280 278 275 274 275 275 273 273 273 272 271 269 267 266 264 263
294 294 294 293 292 292 292 292 292 291 290 289 288 287 286 284 283 283 282 280 280 281 282 283 283 281 279 278 277 274 274 275 274 273 272 272 272 271 270 268 266 264 262
296 295 294 294 294 294 294 293 292 292 291 291 290 289 288 286 284 284 282 281 280 280 281 281 281 280 280 278 276 274 274 274 273 271 271 272 272 270 270 269 267 264 262
296 296 296 295 295 295 295 294 294 293 292 292 291 291 289 287 286 285 284 282 282 282 281 280 281 280 279 276 274 273 273 273 273 272 272 272 272 271 269 269 267 263 261
296 296 296 296 297 296 295 295 295 295 295 294 293 292 291 289 287 285 285 284 284 283 281 281 281 279 277 275 273 272 272 272 272 273 272 271 270 271 270 268 266 263 261
296 296 296 296 297 297 296 296 296 296 295 294 294 293 292 290 288 286 286 285 284 282 282 282 281 278 276 274 273 272 272 273 273 272 271 270 270 270 270 268 266 264 262